LY3PGO-4 Weather Reports


time (UTC)temp
F
wind
direction
speed
knots
gust
knots
rain 1hr
in
rain 24hr
in
rain mn
in
humidity
%
barometer
mb
20260505011747 50 292 0.0 0.0 0.00 0.00 0.00 92 1010.0
20260505010742 50 292 0.0 0.0 0.00 0.00 0.00 91 1009.9
20260505005735 51 292 0.0 1.7 0.00 0.00 0.00 91 1010.0
20260505004728 51 292 0.9 1.7 0.00 0.00 0.00 91 1009.7
20260505003726 51 315 1.7 3.5 0.00 0.00 0.00 90 1010.0
20260505002716 52 270 1.7 3.5 0.00 0.00 0.00 89 1009.9
20260505001709 53 247 1.7 5.2 0.00 0.00 0.00 88 1010.0
20260505000704 53 270 1.7 5.2 0.00 0.00 0.00 88 1009.9
20260504235657 53 247 2.6 7.8 0.00 0.00 0.00 88 1010.0
20260504234653 53 270 4.3 7.0 0.00 0.00 0.00 88 1009.9
20260504233645 54 180 2.6 6.1 0.00 0.00 0.00 86 1009.8
20260504232638 55 225 1.7 3.5 0.00 0.00 0.00 85 1009.7
20260504231634 55 247 1.7 5.2 0.00 0.00 0.00 83 1009.6
20260504230626 56 247 2.6 6.1 0.00 0.00 0.00 81 1009.5
20260504225623 56 247 1.7 7.0 0.00 0.00 0.00 81 1009.4
20260504224614 56 292 3.5 6.1 0.00 0.00 0.00 80 1009.7
20260504223607 56 247 2.6 3.5 0.00 0.00 0.00 80 1009.5
20260504222602 57 292 1.7 3.5 0.00 0.00 0.00 80 1009.5
20260504221555 57 292 1.7 3.5 0.00 0.00 0.00 79 1009.7
20260504220553 57 270 2.6 3.5 0.00 0.00 0.00 78 1009.5
20260504215542 58 292 1.7 3.5 0.00 0.00 0.00 77 1009.6
20260504214537 58 292 1.7 3.5 0.00 0.00 0.00 76 1009.4
20260504213530 59 292 1.7 3.5 0.00 0.00 0.00 75 1009.3
20260504212524 59 292 1.7 3.5 0.00 0.00 0.00 75 1009.5
20260504211521 60 292 1.7 5.2 0.00 0.00 0.00 74 1009.5
20260504210511 60 270 3.5 6.1 0.00 0.00 0.00 74 1009.5
20260504205506 60 292 3.5 6.1 0.00 0.00 0.00 73 1009.5
20260504204459 60 270 1.7 5.2 0.00 0.00 0.00 74 1009.7
20260504203455 60 270 3.5 7.0 0.00 0.00 0.00 75 1009.8
20260504202449 60 247 2.6 5.2 0.00 0.00 0.00 76 1009.5
20260504201441 60 270 1.7 3.5 0.00 0.00 0.00 76 1009.5
20260504200435 60 315 1.7 3.5 0.00 0.00 0.00 75 1009.5
20260504195429 60 270 1.7 3.5 0.00 0.00 0.00 74 1009.5
20260504194422 61 225 0.0 5.2 0.00 0.00 0.00 75 1009.1
20260504193419 61 270 1.7 3.5 0.00 0.00 0.00 76 1009.6
20260504192410 61 292 0.9 3.5 0.00 0.00 0.00 77 1009.6
20260504191403 61 270 1.7 3.5 0.00 0.00 0.00 76 1009.6
20260504190358 61 270 0.0 3.5 0.00 0.00 0.00 76 1009.8
20260504185351 62 270 2.6 3.5 0.00 0.00 0.00 75 1009.9
20260504184348 62 270 0.9 3.5 0.00 0.00 0.00 76 1009.5
20260504183339 62 270 0.0 1.7 0.00 0.00 0.00 76 1008.9
20260504182333 63 202 0.0 3.5 0.00 0.00 0.00 74 1009.3
20260504181326 63 202 0.0 3.5 0.00 0.00 0.00 75 1009.0
20260504180320 63 180 1.7 5.2 0.00 0.00 0.00 73 1008.9
20260504175316 64 225 2.6 6.1 0.00 0.00 0.00 71 1009.1
20260504174308 64 202 3.5 7.0 0.00 0.00 0.00 71 1008.6
20260504173302 64 157 3.5 7.8 0.00 0.00 0.00 70 1008.9
20260504172256 65 247 2.6 9.6 0.00 0.00 0.00 69 1008.5
20260504171249 66 202 4.3 9.6 0.00 0.00 0.00 68 1008.4
20260504170248 67 247 4.3 9.6 0.00 0.00 0.00 66 1008.4
20260504160207 71 270 3.5 7.8 0.00 0.00 0.00 58 1007.8
20260504151135 73 157 3.5 11.3 0.00 0.00 0.00 55 1007.7
20260504150129 74 247 5.2 12.2 0.00 0.00 0.00 53 1007.5
20260504141057 74 225 3.5 7.8 0.00 0.00 0.00 51 1007.3
20260504081721 77 337 9.6 15.6 0.00 0.00 0.00 38 1008.6
20260504080715 76 270 6.1 13.9 0.00 0.00 0.00 37 1008.4
20260504050523 63 0 1.7 6.1 0.00 0.00 0.00 53 1009.0
20260504045516 62 45 0.9 3.5 0.00 0.00 0.00 54 1009.2
20260504044511 60 247 0.9 3.5 0.00 0.00 0.00 55 1009.1
20260504043504 59 157 0.0 0.0 0.00 0.00 0.00 63 1009.3
20260504042502 58 202 0.0 0.0 0.00 0.00 0.00 67 1009.2
20260504041452 56 180 0.0 0.0 0.00 0.00 0.00 66 1009.3
20260504040446 54 67 0.0 0.0 0.00 0.00 0.00 74 1009.4
20260504035441 53 67 0.0 0.0 0.00 0.00 0.00 77 1009.4
20260504034434 51 67 0.0 0.0 0.00 0.00 0.00 79 1009.3
20260504033431 49 67 0.0 0.0 0.00 0.00 0.00 80 1009.2
20260504032421 49 67 0.0 0.0 0.00 0.00 0.00 82 1009.3
20260504031415 47 67 0.0 0.0 0.00 0.00 0.00 80 1009.3
20260504030408 46 67 0.0 0.0 0.00 0.00 0.00 82 1009.4
20260504025403 46 337 0.0 0.0 0.00 0.00 0.00 83 1009.1
20260504024359 46 315 0.0 0.0 0.00 0.00 0.00 85 1009.2
20260504023350 46 247 0.0 0.0 0.00 0.00 0.00 85 1009.2
20260504022344 45 337 0.0 0.0 0.00 0.00 0.00 85 1009.2
20260504021338 45 315 0.0 0.0 0.00 0.00 0.00 86 1009.3
20260504020331 45 315 0.0 0.0 0.00 0.00 0.00 86 1009.3
20260504015328 45 292 0.0 0.0 0.00 0.00 0.00 87 1009.3
20260504014320 46 315 0.0 0.0 0.00 0.00 0.00 87 1009.3
20260504013313 46 337 0.0 0.0 0.00 0.00 0.00 87 1009.6
20260504012306 45 315 0.0 0.0 0.00 0.00 0.00 85 1009.5